SL-16 DEB, 22575

Orbit data source: Space-Track

SL-16 DEB, 22575 is space debris in LEO originally from a launch on Fri, 26 Mar 1993 UTC launched from the Tyuratam Missile And Space Complex (TTMTR). Debris objects in space refer to the collection of defunct objects orbiting the Earth. Examples of debris include non-operational satellites, rocket bodies, and fragments generated from explosions, collisions, or faulty payload assembly.

Loading next visibility...
Identifier
22575, 1993-016C
Orbit
LEO
Country
Flag of CISCIS
Related business
Manufacturer
Yuzhnoe
Mission
Spacecraft
Bus & Motor
SEP MOTOR COVER, Unknown motor
Mass
~0 kg wet, ~1 kg dry
Launch date (UTC)
1993-03-26 (33 years ago)
Launch vehicle
Unknown
Launch site
Tyuratam Missile And Space Complex (TTMTR)
Object type
Payload
Rocket body
Debris
Shape & HBR
Unknown shape, 0.1 m
Radar Cross Section
Small (<0.1 m²)

Expand to show TLE details & history
Last TLE update: 16 hours ago

TLE from 16 hours ago
0 SL-16 DEB
1 22575U 93016C   26037.87162082  .00000096  00000-0  12845-3 0  9990
2 22575  71.0040 191.6728 0205178 350.7609 125.5694 13.73373165646324
Epoch: 2026-02-06T20:55Z
TLE epoch observation values (Epoch: 2026-02-06T20:55:08.038Z)
Latitude
56.53591°
Longitude
-110.32212°
Altitude
1,086.325 km
Speed
7.27 km/s
True Right ascension
22h 41m 51s
True Declination
56° 23' 04"
Sunlit
Object was in daylight at epoch
Visualization orbit readout
Latitude
Unknown
Longitude
Unknown
Altitude
Unknown
Speed
Unknown
Apparent Right ascension
Unknown
Apparent Declination
Unknown
Sunlit
N/A
Visualization observer readout
Local Sidereal Time
14:40:55
Azimuth
Unknown
Elevation
Unknown
Doppler factor
Unknown
Orbital elements
Apogee altitude
1,136.535 km
Perigee altitude
834.365 km
Semi-major axis
7,363.587 km
Eccentricity
0.02052
Inclination
71.004°
RAAN
191.6728°
Arg. of periapsis
350.7609°
True anomaly
127.4534°
Mean anomaly
125.5694°
Eccentric anomaly
126.51423°
Mean motion
3.43486 °/min
Orbital period
104.81 mins
BSTAR
0.00012845
Loading maneuver chart data...
Computing Atmospheric mass density...
Loading historical data...
Loading historical data...
Loading historical data...
Loading historical data...
Loading historical data...
Loading historical data...
Loading historical data...

Documentation

Showing up to 5 results
|